• Em Portugal
  • Lista de países
  • Para 7 dias
  • Temperatura da água
  • Mapas de satélite
  • Mapa do tempo
  • Widgets de tempo
  • user-avatar
    Iniciar Sessão

    Previsão horária em Yakubovo

    Hoje, 20 Setembro, Quinta-feira

    Tempo Temperatura Precipitação Vento Pressão Humidade
    00:00 +16°C° 0 mm 3 m/s 745 mmHg 93%
    01:00 +16°C° 0 mm 3 m/s 746 mmHg 94%
    02:00 +16°C° 0 mm 3 m/s 745 mmHg 95%
    03:00 +16°C° 0 mm 3 m/s 746 mmHg 95%
    04:00 +16°C° 0 mm 3 m/s 746 mmHg 95%
    05:00 +15°C° 0 mm 2 m/s 746 mmHg 96%
    06:00 +16°C° 0 mm 2 m/s 746 mmHg 93%
    07:00 +17°C° 0 mm 3 m/s 746 mmHg 90%
    08:00 +18°C° 0 mm 3 m/s 747 mmHg 87%
    09:00 +19°C° 0 mm 3 m/s 747 mmHg 80%
    10:00 +21°C° 0 mm 3 m/s 747 mmHg 72%
    11:00 +22°C° 0 mm 3 m/s 747 mmHg 64%
    12:00 +24°C° 0 mm 3 m/s 747 mmHg 61%
    13:00 +25°C° 0 mm 3 m/s 747 mmHg 58%
    14:00 +25°C° 0 mm 3 m/s 747 mmHg 55%
    15:00 +25°C° 0 mm 3 m/s 747 mmHg 60%
    16:00 +24°C° 0 mm 2 m/s 747 mmHg 65%
    17:00 +23°C° 0 mm 1 m/s 747 mmHg 70%
    18:00 +22°C° 0 mm 1 m/s 747 mmHg 74%
    19:00 +21°C° 0 mm 1 m/s 747 mmHg 78%
    20:00 +19°C° 0 mm 1 m/s 747 mmHg 82%
    21:00 +19°C° 0 mm 1 m/s 747 mmHg 84%
    22:00 +19°C° 0 mm 1 m/s 747 mmHg 86%
    23:00 +18°C° 0 mm 1 m/s 747 mmHg 89%

    Amanhã, 21 Setembro, Sexta-feira

    Tempo Temperatura Precipitação Vento Pressão Humidade
    00:00 +18°C° 0 mm 1 m/s 747 mmHg 90%
    01:00 +18°C° 0 mm 1 m/s 747 mmHg 91%
    02:00 +18°C° 0 mm 1 m/s 747 mmHg 92%
    03:00 +18°C° 0 mm 1 m/s 747 mmHg 92%
    04:00 +16°C° 0 mm 1 m/s 747 mmHg 93%
    05:00 +16°C° 0 mm 1 m/s 747 mmHg 93%
    06:00 +17°C° 0 mm 2 m/s 748 mmHg 90%
    07:00 +18°C° 0 mm 2 m/s 748 mmHg 88%
    08:00 +19°C° 0 mm 2 m/s 748 mmHg 85%
    09:00 +21°C° 0 mm 2 m/s 748 mmHg 79%
    10:00 +22°C° 0 mm 3 m/s 748 mmHg 73%
    11:00 +25°C° 0 mm 3 m/s 748 mmHg 67%
    12:00 +25°C° 0 mm 3 m/s 747 mmHg 64%
    13:00 +26°C° 0 mm 3 m/s 747 mmHg 60%
    14:00 +26°C° 0 mm 3 m/s 747 mmHg 57%
    15:00 +25°C° 0 mm 3 m/s 747 mmHg 61%
    16:00 +24°C° 0 mm 3 m/s 746 mmHg 65%
    17:00 +24°C° 0 mm 3 m/s 746 mmHg 70%
    18:00 +21°C° 0 mm 3 m/s 746 mmHg 72%
    19:00 +20°C° 0 mm 3 m/s 746 mmHg 75%
    20:00 +19°C° 0 mm 4 m/s 745 mmHg 77%
    21:00 +18°C° 0 mm 4 m/s 745 mmHg 78%
    22:00 +18°C° 0 mm 4 m/s 745 mmHg 78%
    23:00 +18°C° 0 mm 4 m/s 745 mmHg 78%

    Depois de amanhã, 22 Setembro, Sábado

    Tempo Temperatura Precipitação Vento Pressão Humidade
    00:00 +18°C° 0 mm 4 m/s 744 mmHg 78%
    01:00 +17°C° 0 mm 4 m/s 744 mmHg 78%
    02:00 +16°C° 0 mm 5 m/s 744 mmHg 78%
    03:00 +16°C° 0 mm 5 m/s 743 mmHg 77%
    04:00 +16°C° 0 mm 5 m/s 743 mmHg 76%
    05:00 +15°C° 0 mm 5 m/s 742 mmHg 75%
    06:00 +16°C° 0 mm 6 m/s 742 mmHg 73%
    07:00 +16°C° 0 mm 6 m/s 742 mmHg 71%
    08:00 +17°C° 0 mm 6 m/s 742 mmHg 69%
    09:00 +19°C° 0 mm 6 m/s 742 mmHg 65%
    10:00 +21°C° 0 mm 6 m/s 742 mmHg 61%
    11:00 +22°C° 0 mm 6 m/s 742 mmHg 57%
    12:00 +20°C° 0.1 mm 6 m/s 742 mmHg 64%
    13:00 +19°C° 0.1 mm 6 m/s 742 mmHg 70%
    14:00 +16°C° 0.1 mm 5 m/s 742 mmHg 77%
    15:00 +14°C° 0.2 mm 5 m/s 742 mmHg 79%
    16:00 +13°C° 0.2 mm 4 m/s 742 mmHg 82%
    17:00 +12°C° 0.2 mm 4 m/s 743 mmHg 85%
    18:00 +11°C° 0.7 mm 4 m/s 743 mmHg 86%
    19:00 +11°C° 0.7 mm 4 m/s 743 mmHg 88%
    20:00 +11°C° 0.7 mm 4 m/s 743 mmHg 90%
    21:00 +10°C° 0.8 mm 3 m/s 743 mmHg 90%
    22:00 +10°C° 0.8 mm 3 m/s 743 mmHg 90%
    23:00 +10°C° 0.8 mm 3 m/s 743 mmHg 90%

    23 Setembro, Domingo

    Tempo Temperatura Precipitação Vento Pressão Humidade
    00:00 +9°C° 0.2 mm 3 m/s 743 mmHg 90%
    01:00 +9°C° 0.2 mm 3 m/s 743 mmHg 91%
    02:00 +9°C° 0.2 mm 3 m/s 743 mmHg 91%
    03:00 +9°C° 0 mm 3 m/s 743 mmHg 92%
    04:00 +8°C° 0 mm 3 m/s 743 mmHg 93%
    05:00 +8°C° 0 mm 3 m/s 743 mmHg 93%
    06:00 +8°C° 0 mm 3 m/s 742 mmHg 90%
    07:00 +8°C° 0 mm 4 m/s 742 mmHg 86%
    08:00 +8°C° 0 mm 4 m/s 742 mmHg 82%
    09:00 +10°C° 0 mm 5 m/s 742 mmHg 77%
    10:00 +12°C° 0 mm 5 m/s 742 mmHg 71%
    11:00 +13°C° 0 mm 6 m/s 742 mmHg 65%
    12:00 +14°C° 0.2 mm 6 m/s 742 mmHg 64%
    13:00 +14°C° 0.2 mm 6 m/s 742 mmHg 63%
    14:00 +14°C° 0.2 mm 6 m/s 741 mmHg 61%
    15:00 +14°C° 0.1 mm 5 m/s 741 mmHg 65%
    16:00 +13°C° 0.1 mm 4 m/s 741 mmHg 69%
    17:00 +12°C° 0.1 mm 4 m/s 741 mmHg 72%
    18:00 +11°C° 0 mm 3 m/s 741 mmHg 75%
    19:00 +10°C° 0 mm 3 m/s 741 mmHg 78%
    20:00 +9°C° 0 mm 3 m/s 742 mmHg 81%
    21:00 +9°C° 0 mm 3 m/s 741 mmHg 81%
    22:00 +8°C° 0 mm 3 m/s 741 mmHg 82%
    23:00 +8°C° 0 mm 3 m/s 741 mmHg 83%

    24 Setembro, Segunda-feira

    Tempo Temperatura Precipitação Vento Pressão Humidade
    00:00 +8°C° 0 mm 3 m/s 740 mmHg 81%
    01:00 +8°C° 0 mm 3 m/s 740 mmHg 79%
    02:00 +9°C° 0 mm 3 m/s 739 mmHg 77%
    03:00 +8°C° 0.4 mm 4 m/s 738 mmHg 80%
    04:00 +8°C° 0.4 mm 5 m/s 737 mmHg 83%
    05:00 +7°C° 0.4 mm 6 m/s 736 mmHg 85%
    06:00 +8°C° 1.5 mm 7 m/s 734 mmHg 87%
    07:00 +8°C° 1.5 mm 7 m/s 733 mmHg 88%
    08:00 +7°C° 1.5 mm 8 m/s 732 mmHg 90%
    09:00 +7°C° 2.3 mm 9 m/s 730 mmHg 90%
    10:00 +7°C° 2.3 mm 9 m/s 729 mmHg 90%
    11:00 +8°C° 2.3 mm 10 m/s 727 mmHg 90%
    12:00 +9°C° 1.2 mm 10 m/s 726 mmHg 90%
    13:00 +10°C° 1.2 mm 9 m/s 724 mmHg 89%
    14:00 +11°C° 1.2 mm 9 m/s 722 mmHg 89%
    15:00 +10°C° 0.3 mm 9 m/s 722 mmHg 87%
    16:00 +9°C° 0.3 mm 8 m/s 721 mmHg 85%
    17:00 +7°C° 0.3 mm 8 m/s 721 mmHg 83%
    18:00 +7°C° 0.3 mm 9 m/s 722 mmHg 84%
    19:00 +6°C° 0.3 mm 10 m/s 723 mmHg 85%
    20:00 +6°C° 0.3 mm 11 m/s 724 mmHg 87%
    21:00 +6°C° 0.6 mm 11 m/s 725 mmHg 86%
    22:00 +5°C° 0.6 mm 12 m/s 727 mmHg 85%
    23:00 +4°C° 0.6 mm 12 m/s 728 mmHg 84%

    25 Setembro, Terça-feira

    Tempo Temperatura Precipitação Vento Pressão Humidade
    00:00 +4°C° 0.2 mm 12 m/s 730 mmHg 83%
    01:00 +3°C° 0.2 mm 11 m/s 731 mmHg 82%
    02:00 +3°C° 0.2 mm 11 m/s 733 mmHg 81%
    03:00 +3°C° 0 mm 10 m/s 734 mmHg 81%
    04:00 +3°C° 0 mm 10 m/s 735 mmHg 81%
    05:00 +2°C° 0 mm 9 m/s 736 mmHg 81%
    06:00 +3°C° 0 mm 9 m/s 737 mmHg 79%
    07:00 +3°C° 0 mm 9 m/s 738 mmHg 77%
    08:00 +3°C° 0 mm 9 m/s 738 mmHg 75%
    09:00 +5°C° 0 mm 9 m/s 739 mmHg 69%
    10:00 +5°C° 0 mm 9 m/s 740 mmHg 64%
    11:00 +6°C° 0 mm 9 m/s 741 mmHg 59%
    12:00 +6°C° 0 mm 9 m/s 741 mmHg 57%
    13:00 +6°C° 0 mm 8 m/s 742 mmHg 56%
    14:00 +6°C° 0 mm 8 m/s 742 mmHg 55%
    15:00 +6°C° 0 mm 7 m/s 743 mmHg 57%
    16:00 +7°C° 0 mm 5 m/s 744 mmHg 60%
    17:00 +7°C° 0 mm 4 m/s 744 mmHg 63%
    18:00 +6°C° 0 mm 4 m/s 745 mmHg 66%
    19:00 +5°C° 0 mm 4 m/s 745 mmHg 70%
    20:00 +4°C° 0 mm 4 m/s 746 mmHg 73%
    21:00 +4°C° 0 mm 4 m/s 747 mmHg 76%
    22:00 +3°C° 0 mm 4 m/s 747 mmHg 80%
    23:00 +3°C° 0 mm 4 m/s 748 mmHg 83%
    Mostrar mais